Darstellungsparameter: Aktuell verwendete Einstellungen:
Skalierung der Graphiken ... ?
xyx+y,   Skalierungsfaktor:      Skalierung: Modus: x, Faktor: 1
Darstellungszeitraum ... ?
Vom - - bis: - -   Zeitraum: 10.10.2010 - 12.10.2010
Min/Max/Avg-Anzeige ... ?
Zeige MMA aktuell
Zeige MMA Monat
Zeige MMA alles
Zeige --A aktuell
Zeige --A Monat
Zeige --A alles
Keine MMA-Anzeige
MMA:
Average (ber die Originaldaten)
MMA-Basis: 10.10.2010 - 12.10.2010
Quicknavigation für Darstellung... ?
Tage:      1T, 2T, 3T, 5T -1T -2T -3T -5T +1T +2T +3T +5T
Wochen: 1W, 2W, 3W -1W -2W -3W +1W +2W +3W
Monate: 1M, 3M, 6M -1M -3M -6M +1M +3M +6M
Jahre:    1J, 3J, 5J, 10J -1J -3J -5J -10J +1J +3J +5J +10J
Nutze für die Darstellung ... ?
Originaldaten oder Mittelwerte auf ...
Stundenbasis Tagesbasis Wochenbasis
Monatsbasis Jahresbasis      Datenbasis: Original-Daten
Darstellen als:
Statistik (Auto) Statistik J:M      Darstellung:
Zur Graphik,    zurück zur Übersicht aller Sensoren.
 
Tabellarische Datenbersicht: ?
 
Sensor: Nr:Datum:Temp:Abs-Feuchte:Windchill:Wind:
Aussen-T/F 1 10-10-2010 00:10:02 9.1 C 6.92 g/m*3 9.1 C 0 km/h
2 10-10-2010 00:22:02 9.1 C 7.01 g/m*3 9.1 C 0 km/h
3 10-10-2010 00:34:02 9 C 6.96 g/m*3 9 C 0 km/h
4 10-10-2010 00:46:02 8.8 C 7.05 g/m*3 8.8 C 0 km/h
5 10-10-2010 00:58:02 8.7 C 7.01 g/m*3 8.7 C 0 km/h
6 10-10-2010 01:10:03 8.5 C 6.92 g/m*3 8.5 C 0 km/h
7 10-10-2010 01:22:03 8.5 C 7 g/m*3 8.5 C 0 km/h
8 10-10-2010 01:34:03 8.4 C 6.96 g/m*3 8.4 C 0 km/h
9 10-10-2010 01:46:03 8.3 C 6.91 g/m*3 8.3 C 0 km/h
10 10-10-2010 01:58:03 8.2 C 6.87 g/m*3 8.2 C 0 km/h
11 10-10-2010 02:10:03 8 C 6.86 g/m*3 8 C 0 km/h
12 10-10-2010 02:22:03 7.9 C 6.9 g/m*3 7.9 C 0 km/h
13 10-10-2010 02:34:03 7.9 C 6.9 g/m*3 7.9 C 0 km/h
14 10-10-2010 02:46:03 7.6 C 6.77 g/m*3 7.6 C 0 km/h
15 10-10-2010 02:58:03 7.4 C 6.68 g/m*3 7.4 C 0 km/h
16 10-10-2010 03:10:03 7.5 C 6.8 g/m*3 7.5 C 0 km/h
17 10-10-2010 03:22:03 7.2 C 6.67 g/m*3 7.2 C 0 km/h
18 10-10-2010 03:34:03 7.1 C 6.63 g/m*3 7.1 C 0 km/h
19 10-10-2010 03:46:03 7 C 6.59 g/m*3 7 C 0 km/h
20 10-10-2010 03:58:03 6.9 C 6.62 g/m*3 6.9 C 0 km/h
21 10-10-2010 04:10:03 7 C 6.59 g/m*3 7 C 0 km/h
22 10-10-2010 04:22:03 6.8 C 6.65 g/m*3 6.8 C 0 km/h
23 10-10-2010 04:34:03 6.7 C 6.61 g/m*3 6.7 C 0 km/h
24 10-10-2010 04:46:03 6.7 C 6.61 g/m*3 6.7 C 0 km/h
25 10-10-2010 04:58:03 6.6 C 6.57 g/m*3 6.6 C 0 km/h
Sensor: Nr:Datum:Temp:Abs-Feuchte:Windchill:Wind:
Aussen-T/F 26 10-10-2010 05:10:03 6.5 C 6.52 g/m*3 6.5 C 0 km/h
27 10-10-2010 05:22:03 6.4 C 6.48 g/m*3 6.4 C 0 km/h
28 10-10-2010 05:34:03 6.2 C 6.4 g/m*3 6.2 C 0 km/h
29 10-10-2010 05:46:04 6.2 C 6.4 g/m*3 6.2 C 0 km/h
30 10-10-2010 05:58:04 6.1 C 6.43 g/m*3 6.1 C 0 km/h
31 10-10-2010 06:10:04 5.9 C 6.35 g/m*3 5.9 C 0 km/h
32 10-10-2010 06:22:04 6 C 6.39 g/m*3 6 C 0 km/h
33 10-10-2010 06:34:04 6 C 6.39 g/m*3 6 C 0 km/h
34 10-10-2010 06:46:04 5.8 C 6.38 g/m*3 5.8 C 0 km/h
35 10-10-2010 06:58:04 5.6 C 6.29 g/m*3 5.6 C 0 km/h
36 10-10-2010 07:10:02 5.5 C 6.25 g/m*3 5.5 C 0 km/h
37 10-10-2010 07:22:03 5.6 C 6.29 g/m*3 5.6 C 0 km/h
38 10-10-2010 07:34:02 5.4 C 6.28 g/m*3 5.4 C 0 km/h
39 10-10-2010 07:46:02 5.4 C 6.28 g/m*3 5.4 C 0 km/h
40 10-10-2010 07:58:02 5.6 C 6.43 g/m*3 5.6 C 0 km/h
41 10-10-2010 08:10:01 6 C 6.53 g/m*3 6 C 0 km/h
42 10-10-2010 08:22:01 6.2 C 6.62 g/m*3 6.2 C 0 km/h
43 10-10-2010 08:34:01 6.4 C 6.71 g/m*3 6.4 C 0 km/h
44 10-10-2010 08:46:01 6.5 C 6.75 g/m*3 6.5 C 0 km/h
45 10-10-2010 08:58:01 6.7 C 6.84 g/m*3 6.7 C 0 km/h
46 10-10-2010 09:10:02 7 C 6.82 g/m*3 7 C 0 km/h
47 10-10-2010 09:22:01 6.9 C 6.85 g/m*3 6.9 C 0 km/h
48 10-10-2010 09:34:01 7.1 C 6.79 g/m*3 7.1 C 0 km/h
49 10-10-2010 09:46:01 7.5 C 6.8 g/m*3 7.5 C 0 km/h
50 10-10-2010 09:58:01 7.8 C 6.69 g/m*3 7.8 C 0 km/h
Sensor: Nr:Datum:Temp:Abs-Feuchte:Windchill:Wind:
Aussen-T/F 51 10-10-2010 10:10:01 8.1 C 6.49 g/m*3 8.1 C 0 km/h
52 10-10-2010 10:22:02 8.4 C 6.45 g/m*3 8.4 C 0 km/h
53 10-10-2010 10:34:01 8.8 C 6.7 g/m*3 8.8 C 0 km/h
54 10-10-2010 10:46:03 9.5 C 6.74 g/m*3 9.5 C 0 km/h
55 10-10-2010 10:58:03 9.8 C 6.59 g/m*3 9.8 C 0 km/h
56 10-10-2010 11:10:02 10.2 C 6.47 g/m*3 10.2 C 0 km/h
57 10-10-2010 11:22:02 10.3 C 6.7 g/m*3 10.3 C 0 km/h
58 10-10-2010 11:34:02 10.8 C 6.72 g/m*3 10.8 C 0 km/h
59 10-10-2010 11:46:02 11.5 C 6.51 g/m*3 11.5 C 0 km/h
60 10-10-2010 11:58:03 11.8 C 6.42 g/m*3 11.8 C 0 km/h
61 10-10-2010 12:10:01 12 C 6.61 g/m*3 12 C 0 km/h
62 10-10-2010 12:22:02 12.3 C 6.73 g/m*3 12.3 C 0 km/h
63 10-10-2010 12:34:02 12.7 C 6.68 g/m*3 12.7 C 0 km/h
64 10-10-2010 12:46:02 13.2 C 6.2 g/m*3 13.2 C 0 km/h
65 10-10-2010 12:58:02 13.8 C 6.08 g/m*3 13.8 C 0 km/h
66 10-10-2010 13:10:03 14.4 C 5.69 g/m*3 14.4 C 0 km/h
67 10-10-2010 13:22:02 15.2 C 5.58 g/m*3 15.2 C 0 km/h
68 10-10-2010 13:34:02 16 C 5.86 g/m*3 16 C 0 km/h
69 10-10-2010 13:46:01 16.5 C 5.76 g/m*3 16.5 C 0 km/h
70 10-10-2010 13:58:01 17.2 C 5.42 g/m*3 17.2 C 0 km/h
71 10-10-2010 14:10:02 17.8 C 5.01 g/m*3 17.8 C 0 km/h
72 10-10-2010 14:22:01 18.3 C 5.16 g/m*3 18.3 C 0 km/h
73 10-10-2010 14:34:01 18.7 C 5.76 g/m*3 18.7 C 0 km/h
74 10-10-2010 14:46:01 19 C 5.7 g/m*3 19 C 0 km/h
75 10-10-2010 14:58:01 19.3 C 5.64 g/m*3 19.3 C 0 km/h
Sensor: Nr:Datum:Temp:Abs-Feuchte:Windchill:Wind:
Aussen-T/F 76 10-10-2010 15:10:01 19.6 C 5.91 g/m*3 19.6 C 0 km/h
77 10-10-2010 15:22:02 20 C 6.05 g/m*3 20 C 0 km/h
78 10-10-2010 15:34:01 20.4 C 6.01 g/m*3 20.4 C 0 km/h
79 10-10-2010 15:46:02 20.9 C 6.37 g/m*3 20.9 C 0 km/h
80 10-10-2010 15:58:02 21.1 C 5.16 g/m*3 21.1 C 0 km/h
81 10-10-2010 16:10:01 21.1 C 5.71 g/m*3 21.1 C 0 km/h
82 10-10-2010 16:22:02 21.4 C 5.81 g/m*3 21.4 C 0 km/h
83 10-10-2010 16:34:01 21.3 C 5.78 g/m*3 21.3 C 0 km/h
84 10-10-2010 16:46:02 21.3 C 5.59 g/m*3 21.3 C 0 km/h
85 10-10-2010 16:58:02 21.3 C 5.59 g/m*3 21.3 C 0 km/h
86 10-10-2010 17:10:02 21.2 C 5.56 g/m*3 21.2 C 0 km/h
87 10-10-2010 17:22:02 21 C 5.86 g/m*3 21 C 0 km/h
88 10-10-2010 17:34:02 20.8 C 5.79 g/m*3 20.8 C 0 km/h
89 10-10-2010 17:46:01 20.4 C 5.48 g/m*3 20.4 C 0 km/h
90 10-10-2010 17:58:01 19.8 C 5.3 g/m*3 19.8 C 0 km/h
91 10-10-2010 18:10:02 19.1 C 5.41 g/m*3 19.1 C 0 km/h
92 10-10-2010 18:22:01 18.3 C 5.32 g/m*3 18.3 C 0 km/h
93 10-10-2010 18:34:02 17.1 C 5.24 g/m*3 17.1 C 0 km/h
94 10-10-2010 18:46:01 16.2 C 5.65 g/m*3 16.2 C 0 km/h
95 10-10-2010 18:58:01 15.3 C 5.48 g/m*3 15.3 C 0 km/h
96 10-10-2010 19:10:02 14.8 C 5.57 g/m*3 14.8 C 0 km/h
97 10-10-2010 19:22:01 14.5 C 5.35 g/m*3 14.5 C 0 km/h
98 10-10-2010 19:34:02 14.2 C 5.62 g/m*3 14.2 C 0 km/h
99 10-10-2010 19:46:01 13.7 C 5.68 g/m*3 13.7 C 0 km/h
100 10-10-2010 19:58:01 13.7 C 5.21 g/m*3 13.7 C 0 km/h
Sensor: Nr:Datum:Temp:Abs-Feuchte:Windchill:Wind:
Aussen-T/F 101 10-10-2010 20:10:02 13.4 C 5.23 g/m*3 13.4 C 0 km/h
102 10-10-2010 20:22:02 13 C 5.22 g/m*3 13 C 0 km/h
103 10-10-2010 20:34:01 13 C 4.99 g/m*3 13 C 0 km/h
104 10-10-2010 20:46:02 12.8 C 4.7 g/m*3 12.8 C 0 km/h
105 10-10-2010 20:58:02 12.9 C 4.4 g/m*3 12.9 C 0 km/h
106 10-10-2010 21:10:01 12.7 C 4.23 g/m*3 12.7 C 0 km/h
107 10-10-2010 21:22:02 12.6 C 4.09 g/m*3 12.6 C 0 km/h
108 10-10-2010 21:34:01 12.5 C 3.85 g/m*3 12.5 C 0 km/h
109 10-10-2010 21:46:02 12.4 C 3.93 g/m*3 12.4 C 0 km/h
110 10-10-2010 21:58:03 12 C 3.94 g/m*3 12 C 0 km/h
111 10-10-2010 22:11:02 11.8 C 3.89 g/m*3 11.8 C 0 km/h
112 10-10-2010 22:23:03 11.6 C 4.16 g/m*3 11.6 C 0 km/h
113 10-10-2010 22:35:03 11.4 C 4.11 g/m*3 11.4 C 0 km/h
114 10-10-2010 22:47:03 11.3 C 4.18 g/m*3 11.3 C 0 km/h
115 10-10-2010 22:59:03 11.2 C 4.26 g/m*3 11.2 C 0 km/h
116 10-10-2010 23:11:03 11.1 C 4.33 g/m*3 11.1 C 0 km/h
117 10-10-2010 23:23:03 10.9 C 4.48 g/m*3 10.9 C 0 km/h
118 10-10-2010 23:35:03 10.7 C 4.52 g/m*3 10.7 C 0 km/h
119 10-10-2010 23:47:03 10.6 C 4.59 g/m*3 10.6 C 0 km/h
120 10-10-2010 23:59:03 10.3 C 4.69 g/m*3 10.3 C 0 km/h
121 11-10-2010 00:11:03 10.2 C 4.85 g/m*3 10.2 C 0 km/h
122 11-10-2010 00:23:03 10 C 4.89 g/m*3 10 C 0 km/h
123 11-10-2010 00:35:03 9.9 C 4.95 g/m*3 9.9 C 0 km/h
124 11-10-2010 00:47:03 10 C 4.79 g/m*3 10 C 0 km/h
125 11-10-2010 00:59:03 9.8 C 4.92 g/m*3 9.8 C 0 km/h
Sensor: Nr:Datum:Temp:Abs-Feuchte:Windchill:Wind:
Aussen-T/F 126 11-10-2010 01:11:03 9.6 C 4.95 g/m*3 9.6 C 0 km/h
127 11-10-2010 01:23:03 9.5 C 4.92 g/m*3 9.5 C 0 km/h
128 11-10-2010 01:35:03 9.4 C 4.88 g/m*3 9.4 C 0 km/h
129 11-10-2010 01:47:03 9.3 C 4.94 g/m*3 9.3 C 0 km/h
130 11-10-2010 01:59:03 9.4 C 4.88 g/m*3 9.4 C 0 km/h
131 11-10-2010 02:11:03 9.4 C 4.79 g/m*3 9.4 C 0 km/h
132 11-10-2010 02:23:03 9.4 C 4.88 g/m*3 9.4 C 0 km/h
133 11-10-2010 02:35:03 9 C 4.85 g/m*3 9 C 0 km/h
134 11-10-2010 02:47:04 8.9 C 4.91 g/m*3 8.9 C 0 km/h
135 11-10-2010 02:59:04 8.7 C 4.93 g/m*3 8.7 C 0 km/h
136 11-10-2010 03:11:04 8.5 C 4.95 g/m*3 8.5 C 0 km/h
137 11-10-2010 03:23:04 8.3 C 4.97 g/m*3 8.3 C 0 km/h
138 11-10-2010 03:35:04 8.2 C 5.02 g/m*3 8.2 C 0 km/h
139 11-10-2010 03:47:04 8.1 C 4.99 g/m*3 8.1 C 0 km/h
140 11-10-2010 03:59:04 8.1 C 4.99 g/m*3 8.1 C 0 km/h
141 11-10-2010 04:11:04 7.7 C 5.03 g/m*3 7.7 C 0 km/h
142 11-10-2010 04:23:04 7.5 C 5.12 g/m*3 7.5 C 0 km/h
143 11-10-2010 04:35:04 7.5 C 5.12 g/m*3 7.5 C 0 km/h
144 11-10-2010 04:47:04 7.6 C 5.16 g/m*3 7.6 C 0 km/h
145 11-10-2010 04:59:04 7.6 C 5.08 g/m*3 7.6 C 0 km/h
146 11-10-2010 05:11:04 7.1 C 5.07 g/m*3 7.1 C 0 km/h
147 11-10-2010 05:23:04 7 C 5.27 g/m*3 7 C 0 km/h
148 11-10-2010 05:35:04 6.6 C 5.28 g/m*3 6.6 C 0 km/h
149 11-10-2010 05:47:04 6.3 C 5.26 g/m*3 6.3 C 0 km/h
150 11-10-2010 05:59:04 6.2 C 5.29 g/m*3 6.2 C 0 km/h
Sensor: Nr:Datum:Temp:Abs-Feuchte:Windchill:Wind:
Aussen-T/F 151 11-10-2010 06:11:04 6 C 5.23 g/m*3 6 C 0 km/h
152 11-10-2010 06:23:04 5.8 C 5.23 g/m*3 5.8 C 0 km/h
153 11-10-2010 06:35:04 5.7 C 5.34 g/m*3 5.7 C 0 km/h
154 11-10-2010 06:47:04 5.6 C 5.37 g/m*3 5.6 C 0 km/h
155 11-10-2010 06:59:05 5.5 C 5.41 g/m*3 5.5 C 0 km/h
156 11-10-2010 07:11:02 5.4 C 5.37 g/m*3 5.4 C 0 km/h
157 11-10-2010 07:23:02 5.3 C 5.41 g/m*3 5.3 C 0 km/h
158 11-10-2010 07:35:03 5.3 C 5.41 g/m*3 5.3 C 0 km/h
159 11-10-2010 07:47:02 5.1 C 5.34 g/m*3 5.1 C 0 km/h
160 11-10-2010 07:59:02 5 C 5.3 g/m*3 5 C 0 km/h
161 11-10-2010 08:11:02 4.9 C 5.33 g/m*3 4.9 C 0 km/h
162 11-10-2010 08:23:02 4.9 C 5.4 g/m*3 4.9 C 0 km/h
163 11-10-2010 08:35:02 5 C 5.37 g/m*3 5 C 0 km/h
164 11-10-2010 08:47:02 5 C 5.44 g/m*3 5 C 0 km/h
165 11-10-2010 08:59:02 5 C 5.44 g/m*3 5 C 0 km/h
166 11-10-2010 09:11:02 5.3 C 5.61 g/m*3 5.3 C 0 km/h
167 11-10-2010 09:23:02 5.4 C 5.65 g/m*3 5.4 C 0 km/h
168 11-10-2010 09:35:02 5.6 C 5.73 g/m*3 5.6 C 0 km/h
169 11-10-2010 09:47:01 5.8 C 5.73 g/m*3 5.8 C 0 km/h
170 11-10-2010 09:59:01 5.9 C 5.77 g/m*3 5.9 C 0 km/h
171 11-10-2010 10:11:01 6.1 C 5.77 g/m*3 6.1 C 0 km/h
172 11-10-2010 10:23:01 6.5 C 6 g/m*3 6.5 C 0 km/h
173 11-10-2010 10:35:01 7.1 C 6.16 g/m*3 7.1 C 0 km/h
174 11-10-2010 10:47:02 7.7 C 6.32 g/m*3 7.7 C 0 km/h
175 11-10-2010 10:59:02 8.2 C 6.28 g/m*3 8.2 C 0 km/h
Sensor: Nr:Datum:Temp:Abs-Feuchte:Windchill:Wind:
Aussen-T/F 176 11-10-2010 11:11:02 8.7 C 6.31 g/m*3 8.7 C 0 km/h
177 11-10-2010 11:23:03 9 C 6.26 g/m*3 9 C 0 km/h
178 11-10-2010 11:35:02 9.4 C 6.33 g/m*3 9.4 C 0 km/h
179 11-10-2010 11:47:01 9.9 C 6.44 g/m*3 9.9 C 0 km/h
180 11-10-2010 11:59:01 10.3 C 6.42 g/m*3 10.3 C 0 km/h
181 11-10-2010 12:11:02 10.7 C 6.38 g/m*3 10.7 C 0 km/h
182 11-10-2010 12:23:01 11.3 C 6.43 g/m*3 11.3 C 0 km/h
183 11-10-2010 12:35:01 11.6 C 6.44 g/m*3 11.6 C 0 km/h
184 11-10-2010 12:47:01 12 C 6.39 g/m*3 12 C 0 km/h
185 11-10-2010 12:59:01 12.5 C 6.6 g/m*3 12.5 C 0 km/h
186 11-10-2010 13:11:01 13.8 C 6.2 g/m*3 13.8 C 0 km/h
187 11-10-2010 13:23:02 14.5 C 6.09 g/m*3 14.5 C 0 km/h
188 11-10-2010 13:35:01 14.9 C 5.99 g/m*3 14.9 C 0 km/h
189 11-10-2010 13:47:02 15.4 C 5.65 g/m*3 15.4 C 0 km/h
190 11-10-2010 13:59:02 16 C 5.45 g/m*3 16 C 0 km/h
191 11-10-2010 14:11:02 16.7 C 4.97 g/m*3 16.7 C 0 km/h
192 11-10-2010 14:23:02 17.1 C 5.82 g/m*3 17.1 C 0 km/h
193 11-10-2010 14:35:01 17.4 C 5.48 g/m*3 17.4 C 0 km/h
194 11-10-2010 14:47:01 17.9 C 5.5 g/m*3 17.9 C 0 km/h
195 11-10-2010 14:59:02 18.3 C 5.47 g/m*3 18.3 C 0 km/h
196 11-10-2010 15:11:01 18.8 C 5.31 g/m*3 18.8 C 0 km/h
197 11-10-2010 15:23:01 19.4 C 5.51 g/m*3 19.4 C 0 km/h
198 11-10-2010 15:35:01 19.8 C 5.12 g/m*3 19.8 C 0 km/h
199 11-10-2010 15:47:01 20.3 C 4.57 g/m*3 20.3 C 0 km/h
200 11-10-2010 15:59:01 20.6 C 4.65 g/m*3 20.6 C 0 km/h
Sensor: Nr:Datum:Temp:Abs-Feuchte:Windchill:Wind:
Aussen-T/F 201 11-10-2010 16:11:02 20.8 C 4.71 g/m*3 20.8 C 0 km/h
202 11-10-2010 16:23:01 21.1 C 4.97 g/m*3 21.1 C 0 km/h
203 11-10-2010 16:35:01 21.2 C 4.63 g/m*3 21.2 C 0 km/h
204 11-10-2010 16:47:01 21 C 4.58 g/m*3 21 C 0 km/h
205 11-10-2010 16:59:01 20.7 C 4.14 g/m*3 20.7 C 0 km/h
206 11-10-2010 17:11:02 20.5 C 3.74 g/m*3 20.5 C 0 km/h
207 11-10-2010 17:23:01 20 C 3.63 g/m*3 20 C 0 km/h
208 11-10-2010 17:35:01 19.5 C 3.36 g/m*3 19.5 C 0 km/h
209 11-10-2010 17:47:01 19.1 C 3.44 g/m*3 19.1 C 0 km/h
210 11-10-2010 17:59:01 18.7 C 3.84 g/m*3 18.7 C 0 km/h
211 11-10-2010 18:11:01 18 C 4.45 g/m*3 18 C 0 km/h
212 11-10-2010 18:23:02 16.9 C 4.31 g/m*3 16.9 C 0 km/h
213 11-10-2010 18:35:01 15.7 C 3.88 g/m*3 15.7 C 0 km/h
214 11-10-2010 18:47:03 15.1 C 3.61 g/m*3 15.1 C 0 km/h
215 11-10-2010 18:59:03 14.9 C 3.7 g/m*3 14.9 C 0 km/h
216 11-10-2010 19:11:02 14.4 C 3.71 g/m*3 14.4 C 0 km/h
217 11-10-2010 19:23:02 13.7 C 4.14 g/m*3 13.7 C 0 km/h
218 11-10-2010 19:35:02 13.2 C 4.48 g/m*3 13.2 C 0 km/h
219 11-10-2010 19:47:02 12.5 C 4.51 g/m*3 12.5 C 0 km/h
220 11-10-2010 19:59:03 12.1 C 4.72 g/m*3 12.1 C 0 km/h
221 11-10-2010 20:11:02 11.9 C 4.77 g/m*3 11.9 C 0 km/h
222 11-10-2010 20:23:02 11.8 C 4.84 g/m*3 11.8 C 0 km/h
223 11-10-2010 20:35:02 11.3 C 4.79 g/m*3 11.3 C 0 km/h
224 11-10-2010 20:47:01 11 C 4.7 g/m*3 11 C 0 km/h
225 11-10-2010 20:59:01 10.6 C 4.98 g/m*3 10.6 C 0 km/h
Sensor: Nr:Datum:Temp:Abs-Feuchte:Windchill:Wind:
Aussen-T/F 226 11-10-2010 21:11:02 10.3 C 5.08 g/m*3 10.3 C 0 km/h
227 11-10-2010 21:23:01 10.1 C 4.82 g/m*3 10.1 C 0 km/h
228 11-10-2010 21:35:02 9.9 C 4.95 g/m*3 9.9 C 0 km/h
229 11-10-2010 21:48:03 9.8 C 5.01 g/m*3 9.8 C 0 km/h
230 11-10-2010 22:00:03 9.6 C 4.95 g/m*3 9.6 C 0 km/h
231 11-10-2010 22:12:03 9.4 C 4.88 g/m*3 9.4 C 0 km/h
232 11-10-2010 22:24:03 9.3 C 4.76 g/m*3 9.3 C 0 km/h
233 11-10-2010 22:36:03 8.9 C 4.82 g/m*3 8.9 C 0 km/h
234 11-10-2010 22:48:03 8.8 C 4.79 g/m*3 8.8 C 0 km/h
235 11-10-2010 23:00:03 8.7 C 5.02 g/m*3 8.7 C 0 km/h
236 11-10-2010 23:12:04 8.4 C 4.84 g/m*3 8.4 C 0 km/h
237 11-10-2010 23:24:04 8.2 C 4.86 g/m*3 8.2 C 0 km/h
238 11-10-2010 23:36:04 8.1 C 4.83 g/m*3 8.1 C 0 km/h
239 11-10-2010 23:48:04 7.8 C 4.82 g/m*3 7.8 C 0 km/h
240 12-10-2010 00:00:04 7.4 C 4.93 g/m*3 7.4 C 0 km/h
241 12-10-2010 00:12:04 7.3 C 4.98 g/m*3 7.3 C 0 km/h
242 12-10-2010 00:24:04 7.2 C 4.95 g/m*3 7.2 C 0 km/h
243 12-10-2010 00:36:04 7.1 C 5.07 g/m*3 7.1 C 0 km/h
244 12-10-2010 00:48:04 6.8 C 5.12 g/m*3 6.8 C 0 km/h
245 12-10-2010 01:00:04 6.7 C 5.09 g/m*3 6.7 C 0 km/h
246 12-10-2010 01:12:04 6.5 C 5.1 g/m*3 6.5 C 0 km/h
247 12-10-2010 01:24:04 6.4 C 5.14 g/m*3 6.4 C 0 km/h
248 12-10-2010 01:36:04 6.3 C 5.18 g/m*3 6.3 C 0 km/h
249 12-10-2010 01:48:04 6.1 C 5.11 g/m*3 6.1 C 0 km/h
250 12-10-2010 02:00:04 6 C 5.15 g/m*3 6 C 0 km/h
Sensor: Nr:Datum:Temp:Abs-Feuchte:Windchill:Wind:
Aussen-T/F 251 12-10-2010 02:12:04 5.8 C 5.23 g/m*3 5.8 C 0 km/h
252 12-10-2010 02:24:04 5.8 C 5.3 g/m*3 5.8 C 0 km/h
253 12-10-2010 02:36:04 5.6 C 5.23 g/m*3 5.6 C 0 km/h
254 12-10-2010 02:48:04 5.5 C 5.27 g/m*3 5.5 C 0 km/h
255 12-10-2010 03:00:04 5.2 C 5.16 g/m*3 5.2 C 0 km/h
256 12-10-2010 03:12:04 5.3 C 5.41 g/m*3 5.3 C 0 km/h
257 12-10-2010 03:24:05 5.1 C 5.4 g/m*3 5.1 C 0 km/h
258 12-10-2010 03:36:05 4.9 C 5.33 g/m*3 4.9 C 0 km/h
259 12-10-2010 03:48:05 4.7 C 5.26 g/m*3 4.7 C 0 km/h
260 12-10-2010 04:00:05 4.6 C 5.29 g/m*3 4.6 C 0 km/h
261 12-10-2010 04:12:05 4.4 C 5.22 g/m*3 4.4 C 0 km/h
262 12-10-2010 04:24:05 4.5 C 5.39 g/m*3 4.5 C 0 km/h
263 12-10-2010 04:36:05 4.4 C 5.42 g/m*3 4.4 C 0 km/h
264 12-10-2010 04:48:05 4.2 C 5.35 g/m*3 4.2 C 0 km/h
265 12-10-2010 05:00:05 4.1 C 5.38 g/m*3 4.1 C 0 km/h
266 12-10-2010 05:12:05 4 C 5.34 g/m*3 4 C 0 km/h
267 12-10-2010 05:24:05 3.7 C 5.3 g/m*3 3.7 C 0 km/h
268 12-10-2010 05:36:05 3.6 C 5.26 g/m*3 3.6 C 0 km/h
269 12-10-2010 05:48:05 3.6 C 5.26 g/m*3 3.6 C 0 km/h
270 12-10-2010 06:00:05 3.6 C 5.26 g/m*3 3.6 C 0 km/h
271 12-10-2010 06:12:05 3.5 C 5.29 g/m*3 3.5 C 0 km/h
272 12-10-2010 06:24:05 3.4 C 5.25 g/m*3 3.4 C 0 km/h
273 12-10-2010 06:36:05 3.4 C 5.25 g/m*3 3.4 C 0 km/h
274 12-10-2010 06:48:02 3.4 C 5.25 g/m*3 3.4 C 0 km/h
275 12-10-2010 07:00:02 3.2 C 5.18 g/m*3 3.2 C 0 km/h
Sensor: Nr:Datum:Temp:Abs-Feuchte:Windchill:Wind:
Aussen-T/F 276 12-10-2010 07:12:03 3.1 C 5.15 g/m*3 3.1 C 0 km/h
277 12-10-2010 07:24:02 3 C 5.17 g/m*3 3 C 0 km/h
278 12-10-2010 07:36:02 2.8 C 5.16 g/m*3 2.8 C 0 km/h
279 12-10-2010 07:48:01 2.6 C 5.09 g/m*3 2.6 C 0 km/h
280 12-10-2010 08:00:01 2.7 C 5.13 g/m*3 2.7 C 0 km/h
281 12-10-2010 08:12:02 3.2 C 5.36 g/m*3 3.2 C 0 km/h
282 12-10-2010 08:24:02 3.6 C 5.57 g/m*3 3.6 C 0 km/h
283 12-10-2010 08:36:02 4 C 5.72 g/m*3 4 C 0 km/h
284 12-10-2010 08:48:02 4.3 C 5.84 g/m*3 4.3 C 0 km/h
285 12-10-2010 09:00:02 4.5 C 5.85 g/m*3 4.5 C 0 km/h
286 12-10-2010 09:12:02 4.7 C 5.93 g/m*3 4.7 C 0 km/h
287 12-10-2010 09:24:02 4.8 C 5.9 g/m*3 4.8 C 0 km/h
288 12-10-2010 09:36:02 5.2 C 5.99 g/m*3 5.2 C 0 km/h
289 12-10-2010 09:48:02 5.3 C 5.96 g/m*3 5.3 C 0 km/h
290 12-10-2010 10:00:02 5.3 C 5.89 g/m*3 5.3 C 0 km/h
291 12-10-2010 10:12:02 5.6 C 6.01 g/m*3 5.6 C 0 km/h
292 12-10-2010 10:24:02 5.7 C 6.05 g/m*3 5.7 C 0 km/h
293 12-10-2010 10:36:02 6 C 6.1 g/m*3 6 C 0 km/h
294 12-10-2010 10:48:02 6.5 C 6.3 g/m*3 6.5 C 0 km/h
295 12-10-2010 11:00:02 6.5 C 6.3 g/m*3 6.5 C 0 km/h
296 12-10-2010 11:12:02 6.6 C 6.34 g/m*3 6.6 C 0 km/h
297 12-10-2010 11:24:02 7 C 6.43 g/m*3 7 C 0 km/h
298 12-10-2010 11:36:02 7.7 C 6.41 g/m*3 7.7 C 0 km/h
299 12-10-2010 11:48:02 8 C 6.28 g/m*3 8 C 0 km/h
300 12-10-2010 12:00:02 8.4 C 6.28 g/m*3 8.4 C 0 km/h
Sensor: Nr:Datum:Temp:Abs-Feuchte:Windchill:Wind:
Aussen-T/F 301 12-10-2010 12:12:02 9 C 6.17 g/m*3 9 C 0 km/h
302 12-10-2010 12:24:02 9.6 C 6.14 g/m*3 9.6 C 0 km/h
303 12-10-2010 12:36:02 10.2 C 6.09 g/m*3 10.2 C 0 km/h
304 12-10-2010 12:48:02 10.6 C 6.15 g/m*3 10.6 C 0 km/h
305 12-10-2010 13:00:02 11.5 C 5.78 g/m*3 11.5 C 0 km/h
306 12-10-2010 13:12:01 12.2 C 5.5 g/m*3 12.2 C 0 km/h
307 12-10-2010 13:24:02 12.7 C 5.79 g/m*3 12.7 C 0 km/h
308 12-10-2010 13:36:02 13 C 5.78 g/m*3 13 C 0 km/h
309 12-10-2010 13:48:02 13.5 C 5.73 g/m*3 13.5 C 0 km/h
310 12-10-2010 14:00:02 14.1 C 5.83 g/m*3 14.1 C 0 km/h
311 12-10-2010 14:12:03 15 C 5.39 g/m*3 15 C 0 km/h
312 12-10-2010 14:24:02 15.4 C 5.65 g/m*3 15.4 C 0 km/h
313 12-10-2010 14:36:02 15.6 C 5.72 g/m*3 15.6 C 0 km/h
314 12-10-2010 14:48:01 16.2 C 5.65 g/m*3 16.2 C 0 km/h
315 12-10-2010 15:00:01 16.4 C 5.58 g/m*3 16.4 C 0 km/h
316 12-10-2010 15:12:02 17 C 5.5 g/m*3 17 C 0 km/h
317 12-10-2010 15:24:01 16.8 C 5.29 g/m*3 16.8 C 0 km/h
318 12-10-2010 15:36:01 17.2 C 5.42 g/m*3 17.2 C 0 km/h
319 12-10-2010 15:48:01 17.3 C 5.3 g/m*3 17.3 C 0 km/h
320 12-10-2010 16:00:01 17.5 C 5.52 g/m*3 17.5 C 0 km/h
321 12-10-2010 16:12:02 17.8 C 5.31 g/m*3 17.8 C 0 km/h
322 12-10-2010 16:24:02 17.4 C 5.48 g/m*3 17.4 C 0 km/h
323 12-10-2010 16:36:01 17.7 C 5.43 g/m*3 17.7 C 0 km/h
324 12-10-2010 16:48:02 17.9 C 5.34 g/m*3 17.9 C 0 km/h
325 12-10-2010 17:00:02 17.9 C 4.89 g/m*3 17.9 C 0 km/h
Sensor: Nr:Datum:Temp:Abs-Feuchte:Windchill:Wind:
Aussen-T/F 326 12-10-2010 17:12:01 17.8 C 4.86 g/m*3 17.8 C 0 km/h
327 12-10-2010 17:24:02 17.4 C 4.45 g/m*3 17.4 C 0 km/h
328 12-10-2010 17:36:01 16.6 C 4.24 g/m*3 16.6 C 0 km/h
329 12-10-2010 17:48:02 16.4 C 4.47 g/m*3 16.4 C 0 km/h
330 12-10-2010 18:00:02 16 C 4.9 g/m*3 16 C 0 km/h
331 12-10-2010 18:12:02 15.4 C 5.39 g/m*3 15.4 C 0 km/h
332 12-10-2010 18:24:02 14.4 C 5.69 g/m*3 14.4 C 0 km/h
333 12-10-2010 18:36:03 13.7 C 5.92 g/m*3 13.7 C 0 km/h
334 12-10-2010 18:48:02 13 C 6.12 g/m*3 13 C 0 km/h
335 12-10-2010 19:00:02 12.3 C 6.3 g/m*3 12.3 C 0 km/h
336 12-10-2010 19:12:02 11.8 C 6.42 g/m*3 11.8 C 0 km/h
337 12-10-2010 19:24:02 11.3 C 6.43 g/m*3 11.3 C 0 km/h
338 12-10-2010 19:36:02 10.9 C 6.56 g/m*3 10.9 C 0 km/h
339 12-10-2010 19:48:02 10.8 C 6.52 g/m*3 10.8 C 0 km/h
340 12-10-2010 20:00:02 10.4 C 6.46 g/m*3 10.4 C 0 km/h
341 12-10-2010 20:12:01 10.1 C 6.43 g/m*3 10.1 C 0 km/h
342 12-10-2010 20:24:02 9.9 C 6.54 g/m*3 9.9 C 0 km/h
343 12-10-2010 20:36:01 9.5 C 6.46 g/m*3 9.5 C 0 km/h
344 12-10-2010 20:48:02 9.3 C 6.47 g/m*3 9.3 C 0 km/h
345 12-10-2010 21:00:02 8.9 C 6.39 g/m*3 8.9 C 0 km/h
346 12-10-2010 21:12:02 8.6 C 6.27 g/m*3 8.6 C 0 km/h
347 12-10-2010 21:24:02 8.3 C 6.24 g/m*3 8.3 C 0 km/h
348 12-10-2010 21:36:02 8.1 C 6.16 g/m*3 8.1 C 0 km/h
349 12-10-2010 21:48:02 7.9 C 6.24 g/m*3 7.9 C 0 km/h
350 12-10-2010 22:00:02 7.7 C 6.16 g/m*3 7.7 C 0 km/h
Sensor: Nr:Datum:Temp:Abs-Feuchte:Windchill:Wind:
Aussen-T/F 351 12-10-2010 22:12:01 7.5 C 6.08 g/m*3 7.5 C 0 km/h
352 12-10-2010 22:25:03 7.6 C 6.2 g/m*3 7.6 C 0 km/h
353 12-10-2010 22:37:03 7.9 C 6.24 g/m*3 7.9 C 0 km/h
354 12-10-2010 22:49:03 8 C 6.04 g/m*3 8 C 0 km/h
355 12-10-2010 23:01:03 7.9 C 6 g/m*3 7.9 C 0 km/h
356 12-10-2010 23:13:03 7.7 C 5.92 g/m*3 7.7 C 0 km/h
357 12-10-2010 23:25:03 7.8 C 6.04 g/m*3 7.8 C 0 km/h
358 12-10-2010 23:37:03 7.8 C 6.04 g/m*3 7.8 C 0 km/h
359 12-10-2010 23:49:03 7.7 C 6 g/m*3 7.7 C 0 km/h

Legende:
   Min
   Max


Maximal/Minimal-Werte vom 10.10.2010 - 12.10.2010

Sensor Min Max Avg
Temp
(Aussen-T/F)
2.6 °C
12-10-2010  07:48:01
21.4 °C
10-10-2010  16:22:02
10.41 °C
Abs-Feuchte
(Aussen-T/F)
3.36 g/m*3
11-10-2010  17:35:01
7.05 g/m*3
10-10-2010  00:46:02
5.56 g/m*3
Windchill
(Aussen-T/F)
2.6 C
12-10-2010  07:48:01
21.4 C
10-10-2010  16:22:02
10.38 C

Die Daten stammen von einer Davis Vantage Pro 2 Wetter-Station und werden unter Linux mit der Software wview2wettercgi und aufbereitet. Alle Angaben erfolgen ohne Gewähr für ihre Vollständigkeit oder Richtigkeit.
Kontakt: Rainer Krienke krienke@uni-koblenz.de . Meine Webseiten an der Uni Koblenz oder privat.
Version: $Revision: 0.78 $